Showing default

AMAZONAS 2, 35942

Orbit data source: Space-Track

AMAZONAS 2, 35942 is a Brazilian payload satellite in GEO that was launched on Wed, 30 Sep 2009 UTC via an ARIANE 5ECA launch vehicle from the French Guiana (FRGUI). Payload-class satellites include a variety of spacecraft equipped with specific instruments for various scientific and technological missions. These include communications satellites like Starlink; space stations such as the ISS; scientific satellites like the Hubble; Earth observation satellites from companies like Planet Labs, Umbra, and HawkEye 360; GPS; miniature CubeSats for education and research; and military/defense satellites.

Loading next visibility...
Identifier
35942, 2009-054A
Orbit
GEO
Country
Flag of BRBR / BRAZ
Related business
Manufacturer
Astrium/Toulouse
Mission
Operational Commercial Communications
Bus & Motor
EUROSTAR 3000, R-4D-15-375
Mass
5,465 kg wet, ~3,000 kg dry
Launch date (UTC)
2009-09-30 (17 years ago)
Launch vehicle
ARIANE 5ECA
Launch site
French Guiana (FRGUI)
Object type
Payload
Rocket body
Debris
Shape & HBR
Box + 2 Pan, 19.5 m
Radar Cross Section
51.688 m², Large (>1 m²)

Expand to show TLE details & history
Last TLE update: 8 hours ago

TLE from 8 hours ago
0 AMAZONAS 2
1 35942U 09054A   26105.50156487 -.00000275  00000-0  00000-0 0  9996
2 35942   1.6511  83.8139 0003358 299.1523 300.4883  1.00272058 60558
Epoch: 2026-04-15T12:02Z
TLE epoch observation values (Epoch: 2026-04-15T12:02:15.204Z)
Latitude
-1.40047°
Longitude
-60.82229°
Altitude
35,778.986 km
Speed
3.075 km/s
True Right ascension
21h 33m 36s
True Declination
-1° 23' 57"
Sunlit
Object was in daylight at epoch
Visualization orbit readout
Latitude
Unknown
Longitude
Unknown
Altitude
Unknown
Speed
Unknown
Apparent Right ascension
Unknown
Apparent Declination
Unknown
Sunlit
N/A
Visualization observer readout
Local Sidereal Time
03:05:22
Azimuth
Unknown
Elevation
Unknown
Doppler factor
Unknown
Orbital elements
Apogee altitude
35,801.747 km
Perigee altitude
35,773.428 km
Semi-major axis
42,165.725 km
Eccentricity
0.00034
Inclination
1.6511°
RAAN
83.8139°
Arg. of periapsis
299.1523°
True anomaly
300.45513°
Mean anomaly
300.4883°
Eccentric anomaly
300.47172°
Mean motion
0.25067 °/min
Orbital period
1,436.15 mins
BSTAR
0
Loading maneuver chart data...
Computing Atmospheric mass density...
Loading historical data...
Loading historical data...
Loading historical data...
Loading historical data...
Loading historical data...
Loading historical data...
Loading historical data...
Other satellites on launch #54 in the year 2009 (2009-09-30 UTC)

Documentation

Showing up to 5 results
|